N2QKV-13 Weather Reports


time (UTC)temp
F
wind
direction
speed
knots
gust
knots
rain 1hr
in
rain 24hr
in
rain mn
in
humidity
%
barometer
mb
20260507011004 68 132 0.9 1.7 0.00 0.00 0.00 78 1008.2
20260507010504 69 132 0.9 2.6 0.00 0.00 0.00 77 1008.0
20260507010004 69 222 0.9 1.7 0.00 0.00 0.00 76 1008.1
20260507005503 69 213 0.9 4.3 0.00 0.00 0.00 76 1008.0
20260507005004 69 212 1.7 5.2 0.00 0.00 0.00 76 1008.0
20260507004504 69 196 0.9 4.3 0.00 0.00 0.00 77 1008.1
20260507004003 69 195 0.9 4.3 0.00 0.00 0.00 77 1008.0
20260507003503 68 192 0.9 5.2 0.00 0.00 0.00 77 1007.9
20260507003004 68 193 0.9 2.6 0.00 0.00 0.00 78 1007.9
20260507002503 69 177 0.0 1.7 0.00 0.00 0.00 77 1007.9
20260507002004 69 177 0.9 1.7 0.00 0.00 0.00 76 1007.9
20260507001503 69 177 0.0 1.7 0.00 0.00 0.00 75 1007.8
20260507001004 69 232 0.0 1.7 0.00 0.00 0.00 75 1007.8
20260507000503 69 155 0.9 2.6 0.00 0.00 0.00 75 1007.8
20260507000004 69 193 1.7 4.3 0.00 0.00 0.00 75 1007.7
20260506235503 70 206 0.9 2.6 0.00 0.00 0.00 74 1007.7
20260506235003 70 193 0.9 6.1 0.00 0.00 0.00 74 1007.6
20260506234504 70 185 1.7 2.6 0.00 0.00 0.00 74 1007.6
20260506234003 70 195 1.7 5.2 0.00 0.00 0.00 73 1007.6
20260506233503 70 186 1.7 6.1 0.00 0.00 0.00 73 1007.7
20260506233004 70 214 2.6 5.2 0.00 0.00 0.00 73 1007.5
20260506232503 70 201 0.9 2.6 0.00 0.00 0.00 73 1007.4
20260506232003 70 223 1.7 5.2 0.00 0.00 0.00 73 1007.4
20260506231503 70 183 0.9 7.0 0.00 0.00 0.00 73 1007.5
20260506231003 70 200 0.9 1.7 0.00 0.00 0.00 73 1007.6
20260506230504 71 199 0.9 2.6 0.00 0.00 0.00 72 1007.6
20260506230003 71 261 1.7 4.3 0.00 0.00 0.00 72 1007.5
20260506225503 71 234 0.9 4.3 0.00 0.00 0.00 71 1007.4
20260506225004 71 219 2.6 7.8 0.00 0.00 0.00 71 1007.4
20260506224504 71 210 2.6 7.8 0.00 0.00 0.00 71 1007.4
20260506224004 71 249 1.7 6.1 0.00 0.00 0.00 71 1007.4
20260506223504 71 229 0.9 2.6 0.00 0.00 0.00 72 1007.4
20260506223003 70 230 1.7 2.6 0.00 0.00 0.00 72 1007.5
20260506222503 70 222 1.7 4.3 0.00 0.00 0.00 72 1007.4
20260506222004 71 238 2.6 7.8 0.00 0.00 0.00 71 1007.4
20260506221504 71 235 1.7 6.1 0.00 0.00 0.00 72 1007.4
20260506221003 71 244 2.6 6.1 0.00 0.00 0.00 72 1007.5
20260506220503 71 197 1.7 5.2 0.00 0.00 0.00 71 1007.3
20260506220004 71 205 2.6 7.8 0.00 0.00 0.00 71 1007.3
20260506215503 71 249 0.9 8.7 0.00 0.00 0.00 72 1007.2
20260506215003 70 223 1.7 8.7 0.00 0.00 0.00 72 1007.2
20260506214504 70 229 1.7 14.8 0.00 0.00 0.00 72 1007.1
20260506214004 70 197 4.3 11.3 0.00 0.00 0.00 73 1007.2
20260506213503 70 217 2.6 10.4 0.00 0.00 0.00 73 1007.2
20260506213003 70 226 1.7 5.2 0.00 0.00 0.00 74 1007.1
20260506212504 70 204 1.7 5.2 0.00 0.00 0.00 74 1006.9
20260506212003 70 213 1.7 5.2 0.00 0.00 0.00 74 1007.1
20260506211503 70 222 1.7 5.2 0.00 0.00 0.00 74 1006.9
20260506211003 70 193 1.7 8.7 0.00 0.00 0.00 74 1007.0
20260506210503 70 212 3.5 10.4 0.00 0.00 0.00 74 1006.8
20260506210003 69 252 0.9 2.6 0.00 0.00 0.00 75 1006.9
20260506205504 69 182 4.3 10.4 0.00 0.00 0.00 75 1006.9
20260506205004 69 201 1.7 11.3 0.00 0.00 0.00 75 1007.0
20260506204503 69 211 2.6 8.7 0.00 0.00 0.00 75 1007.0
20260506204004 69 235 1.7 10.4 0.00 0.00 0.00 76 1006.8
20260506203503 69 222 2.6 10.4 0.00 0.00 0.00 75 1006.9
20260506203003 69 231 2.6 10.4 0.00 0.00 0.00 75 1007.1
20260506202504 69 230 4.3 11.3 0.00 0.00 0.00 75 1007.0
20260506202004 69 215 2.6 13.9 0.00 0.00 0.00 75 1007.0
20260506201503 69 199 2.6 12.2 0.00 0.00 0.00 75 1007.2
20260506201004 69 199 5.2 11.3 0.00 0.00 0.00 75 1007.2
20260506200504 69 186 2.6 8.7 0.00 0.00 0.00 76 1007.2
20260506200004 69 206 2.6 10.4 0.00 0.00 0.00 76 1007.3
20260506195503 68 202 4.3 8.7 0.00 0.00 0.00 76 1007.4
20260506195003 68 226 3.5 12.2 0.00 0.00 0.00 76 1007.3
20260506194504 68 203 1.7 11.3 0.00 0.00 0.00 76 1007.3
20260506194003 68 209 3.5 12.2 0.00 0.00 0.00 76 1007.5
20260506193503 68 235 1.7 18.2 0.00 0.00 0.00 76 1007.4
20260506193004 68 227 4.3 10.4 0.00 0.00 0.00 77 1007.6
20260506192504 68 224 4.3 10.4 0.00 0.00 0.00 77 1007.6
20260506192003 67 228 2.6 7.0 0.00 0.00 0.00 78 1007.7
20260506191504 67 189 2.6 10.4 0.00 0.00 0.00 78 1007.6
20260506191003 67 206 4.3 12.2 0.00 0.00 0.00 78 1007.7
20260506190504 68 223 4.3 13.0 0.00 0.00 0.00 77 1007.7
20260506190005 68 192 5.2 13.9 0.00 0.00 0.00 76 1007.8
20260506185504 68 204 3.5 12.2 0.00 0.00 0.00 76 1007.6
20260506185003 68 212 4.3 8.7 0.00 0.00 0.00 76 1007.6
20260506184504 68 225 4.3 10.4 0.00 0.00 0.00 77 1007.7
20260506184003 67 207 5.2 14.8 0.00 0.00 0.00 78 1007.7
20260506183503 67 184 5.2 14.8 0.00 0.00 0.00 80 1007.8
20260506183005 66 157 2.6 8.7 0.00 0.00 0.00 80 1007.7
20260506182504 66 173 4.3 11.3 0.00 0.00 0.00 80 1007.9
20260506182003 66 167 2.6 7.0 0.00 0.00 0.00 80 1007.9
20260506181504 66 178 0.9 6.1 0.00 0.00 0.00 81 1008.0
20260506181003 66 176 2.6 10.4 0.00 0.00 0.00 81 1008.0
20260506180503 66 156 2.6 7.0 0.00 0.00 0.00 80 1008.1
20260506180004 66 153 4.3 8.7 0.00 0.00 0.00 81 1008.2
20260506175503 66 164 4.3 7.8 0.00 0.00 0.00 81 1008.2
20260506175003 66 163 3.5 8.7 0.00 0.00 0.00 82 1008.3
20260506174503 66 198 4.3 11.3 0.00 0.00 0.00 82 1008.3
20260506174003 66 145 5.2 11.3 0.00 0.00 0.00 82 1008.4
20260506173503 66 155 6.1 12.2 0.00 0.00 0.00 82 1008.5
20260506173004 66 170 2.6 8.7 0.00 0.00 0.00 84 1008.4
20260506172503 66 141 4.3 10.4 0.00 0.00 0.00 84 1008.5
20260506172004 66 144 5.2 12.2 0.00 0.00 0.00 84 1008.7
20260506171503 66 155 4.3 8.7 0.00 0.00 0.00 82 1008.7
20260506171003 66 145 1.7 13.0 0.00 0.00 0.00 81 1008.7
20260506170503 66 141 5.2 8.7 0.00 0.00 0.00 81 1008.7
20260506170004 66 180 3.5 8.7 0.00 0.00 0.00 80 1009.5
20260506165503 66 136 5.2 10.4 0.00 0.00 0.00 81 1009.5
20260506165004 66 159 2.6 7.8 0.00 0.00 0.00 82 1009.5
20260506164504 65 326 2.6 7.8 0.00 0.00 0.00 83 1009.6
20260506164004 65 177 2.6 7.0 0.00 0.00 0.00 83 1009.8
20260506163503 65 199 4.3 7.8 0.00 0.00 0.00 83 1009.8
20260506163003 65 151 4.3 10.4 0.00 0.00 0.00 82 1009.9
20260506162504 65 354 2.6 5.2 0.00 0.00 0.00 81 1009.9
20260506162003 65 354 2.6 8.7 0.00 0.00 0.00 81 1010.0
20260506161503 65 350 4.3 11.3 0.00 0.00 0.00 81 1009.9
20260506161003 65 342 4.3 8.7 0.00 0.00 0.00 79 1009.9
20260506160504 66 157 5.2 11.3 0.00 0.00 0.00 78 1009.8
20260506160004 66 151 5.2 13.0 0.00 0.00 0.00 77 1009.8
20260506155503 67 175 4.3 11.3 0.00 0.00 0.00 76 1009.9
20260506155004 68 166 4.3 11.3 0.00 0.00 0.00 75 1009.8
20260506154504 68 155 2.6 7.8 0.00 0.00 0.00 75 1010.0
20260506154004 68 143 6.1 13.0 0.00 0.00 0.00 74 1009.8
20260506153503 68 142 5.2 10.4 0.00 0.00 0.00 75 1009.8
20260506153004 67 160 4.3 10.4 0.00 0.00 0.00 76 1009.8
20260506152503 67 142 3.5 8.7 0.00 0.00 0.00 76 1009.9
20260506152004 67 150 5.2 10.4 0.00 0.00 0.00 76 1009.8
20260506151504 68 156 4.3 11.3 0.00 0.00 0.00 75 1009.9
20260506151004 68 143 6.1 10.4 0.00 0.00 0.00 73 1010.1
20260506150504 69 158 3.5 11.3 0.00 0.00 0.00 72 1010.0
20260506150003 70 150 3.5 8.7 0.00 0.00 0.00 71 1009.9
20260506145504 70 154 2.6 10.4 0.00 0.00 0.00 71 1009.9
20260506145003 70 171 4.3 7.8 0.00 0.00 0.00 70 1009.8
20260506144504 71 155 3.5 8.7 0.00 0.00 0.00 70 1009.8
20260506144004 70 164 4.3 11.3 0.00 0.00 0.00 71 1009.9
20260506143504 70 186 4.3 7.8 0.00 0.00 0.00 71 1010.0
20260506143004 70 158 4.3 8.7 0.00 0.00 0.00 71 1009.9
20260506142504 71 157 5.2 10.4 0.00 0.00 0.00 69 1009.8
20260506142004 72 145 4.3 10.4 0.00 0.00 0.00 64 1009.8
20260506141504 73 210 2.6 14.8 0.00 0.00 0.00 61 1009.8
20260506141003 73 190 4.3 15.6 0.00 0.00 0.00 61 1009.8
20260506140504 73 222 5.2 12.2 0.00 0.00 0.00 61 1009.9
20260506140004 74 183 5.2 10.4 0.00 0.00 0.00 61 1009.8
20260506135503 73 170 4.3 12.2 0.00 0.00 0.00 62 1009.9
20260506135003 73 185 7.0 17.4 0.00 0.00 0.00 62 1010.0
20260506134503 73 173 5.2 13.0 0.00 0.00 0.00 62 1010.2
20260506134004 73 209 5.2 11.3 0.00 0.00 0.00 62 1010.2
20260506133503 72 167 3.5 10.4 0.00 0.00 0.00 63 1010.1
20260506133004 73 202 3.5 13.9 0.00 0.00 0.00 62 1010.1
20260506132504 73 204 4.3 10.4 0.00 0.00 0.00 64 1010.6
20260506132003 73 196 4.3 12.2 0.00 0.00 0.00 64 1010.6
20260506131504 72 212 5.2 13.0 0.00 0.00 0.00 66 1010.5
20260506131003 71 219 4.3 8.7 0.00 0.00 0.00 66 1010.4
20260506130503 71 197 5.2 13.0 0.00 0.00 0.00 68 1010.5
20260506130003 70 167 2.6 12.2 0.00 0.00 0.00 68 1010.5
20260506125503 70 218 5.2 10.4 0.00 0.00 0.00 69 1010.5
20260506125003 69 188 4.3 11.3 0.00 0.00 0.00 71 1010.4
20260506124503 67 243 2.6 11.3 0.00 0.00 0.00 72 1010.4
20260506124004 67 195 3.5 10.4 0.00 0.00 0.00 73 1010.4
20260506123503 67 165 3.5 10.4 0.00 0.00 0.00 73 1010.4
20260506123003 67 192 4.3 11.3 0.00 0.00 0.00 73 1010.5
20260506122504 67 188 4.3 10.4 0.00 0.00 0.00 73 1010.5
20260506122003 67 184 2.6 7.8 0.00 0.00 0.00 74 1010.6
20260506121503 66 191 2.6 7.8 0.00 0.00 0.00 75 1010.5
20260506121004 66 187 4.3 8.7 0.00 0.00 0.00 74 1010.6
20260506120503 66 193 4.3 8.7 0.00 0.00 0.00 74 1010.5
20260506120003 66 242 2.6 12.2 0.00 0.00 0.00 74 1010.5
20260506115503 66 186 0.9 7.8 0.00 0.00 0.00 74 1010.6
20260506115004 66 196 5.2 13.0 0.00 0.00 0.00 75 1010.7
20260506114504 65 200 3.5 7.8 0.00 0.00 0.00 76 1010.8
20260506114003 65 185 2.6 12.2 0.00 0.00 0.00 77 1010.8
20260506113503 64 203 2.6 12.2 0.00 0.00 0.00 77 1010.8
20260506113004 64 203 3.5 7.8 0.00 0.00 0.00 77 1010.8
20260506112503 64 223 5.2 12.2 0.00 0.00 0.00 77 1010.8
20260506112003 64 349 4.3 10.4 0.00 0.00 0.00 77 1010.8
20260506111503 64 206 3.5 10.4 0.00 0.00 0.00 77 1010.7
20260506111004 64 217 4.3 10.4 0.00 0.00 0.00 78 1010.7
20260506110504 63 220 3.5 13.9 0.00 0.00 0.00 79 1010.6
20260506110004 63 193 4.3 8.7 0.00 0.00 0.00 80 1010.6
20260506105503 62 197 4.3 14.8 0.00 0.00 0.00 81 1010.6
20260506105003 62 319 3.5 7.8 0.00 0.00 0.00 81 1010.7
20260506104503 62 198 3.5 8.7 0.00 0.00 0.00 81 1010.6
20260506104003 62 194 4.3 8.7 0.00 0.00 0.00 82 1010.7
20260506103504 61 148 3.5 8.7 0.00 0.00 0.00 82 1010.7
20260506103003 61 175 2.6 6.1 0.00 0.00 0.00 82 1010.6
20260506102503 61 180 4.3 13.0 0.00 0.00 0.00 82 1010.5
20260506102004 61 233 3.5 7.8 0.00 0.00 0.00 82 1010.5
20260506101504 61 180 4.3 12.2 0.00 0.00 0.00 82 1010.6
20260506101003 61 189 4.3 10.4 0.00 0.00 0.00 82 1010.5
20260506100503 62 179 5.2 13.0 0.00 0.00 0.00 82 1010.3
20260506100004 62 199 1.7 6.1 0.00 0.00 0.00 82 1010.5
20260506095503 62 190 2.6 10.4 0.00 0.00 0.00 82 1010.5
20260506095003 62 183 3.5 8.7 0.00 0.00 0.00 82 1010.5
20260506094503 62 178 3.5 8.7 0.00 0.00 0.00 82 1010.6
20260506094004 62 193 1.7 10.4 0.00 0.00 0.00 82 1010.5
20260506093504 62 209 2.6 7.8 0.00 0.00 0.00 82 1010.5
20260506093004 62 174 4.3 10.4 0.00 0.00 0.00 83 1010.5
20260506092503 62 183 2.6 7.0 0.00 0.00 0.00 83 1010.5
20260506092004 62 202 4.3 11.3 0.00 0.00 0.00 83 1010.6
20260506091504 62 197 6.1 12.2 0.00 0.00 0.00 82 1010.6
20260506091003 62 176 4.3 8.7 0.00 0.00 0.00 82 1010.7
20260506090503 62 176 2.6 7.0 0.00 0.00 0.00 82 1010.7
20260506090004 62 194 4.3 10.4 0.00 0.00 0.00 82 1010.8
20260506085504 62 190 4.3 10.4 0.00 0.00 0.00 82 1010.7
20260506085004 62 177 6.1 12.2 0.00 0.00 0.00 82 1010.8
20260506084503 62 196 2.6 6.1 0.00 0.00 0.00 82 1010.7
20260506084003 62 202 3.5 10.4 0.00 0.00 0.00 82 1010.8
20260506083503 62 172 3.5 10.4 0.00 0.00 0.00 81 1010.8
20260506083004 62 191 3.5 11.3 0.00 0.00 0.00 81 1010.8
20260506082503 62 184 4.3 10.4 0.00 0.00 0.00 81 1010.8
20260506082004 62 235 3.5 11.3 0.00 0.00 0.00 81 1010.8
20260506081504 62 187 3.5 12.2 0.00 0.00 0.00 82 1010.8
20260506081003 62 176 4.3 12.2 0.00 0.00 0.00 81 1010.7
20260506080504 62 200 2.6 7.8 0.00 0.00 0.00 81 1010.6
20260506073503 63 168 2.6 8.7 0.00 0.00 0.00 80 1011.0
20260506073004 63 168 4.3 7.0 0.00 0.00 0.00 80 1011.0
20260506072504 63 213 3.5 7.8 0.00 0.00 0.00 80 1011.0
20260506072003 63 166 5.2 11.3 0.00 0.00 0.00 80 1011.1
20260506071503 63 186 1.7 5.2 0.00 0.00 0.00 80 1011.1
20260506071003 63 186 4.3 7.8 0.00 0.00 0.00 79 1011.0
20260506070503 63 157 1.7 7.0 0.00 0.00 0.00 79 1010.9
20260506062504 63 181 4.3 11.3 0.00 0.00 0.00 79 1011.0
20260506062004 63 182 3.5 8.7 0.00 0.00 0.00 79 1010.9
20260506061503 63 170 2.6 7.8 0.00 0.00 0.00 79 1010.9
20260506061004 63 183 4.3 8.7 0.00 0.00 0.00 79 1010.9
20260506060503 63 160 1.7 8.7 0.00 0.00 0.00 79 1010.9
20260506051003 64 174 4.3 10.4 0.00 0.00 0.00 77 1011.4
20260506050504 64 179 4.3 8.7 0.00 0.00 0.00 77 1011.5
20260506045004 64 198 4.3 10.4 0.00 0.00 0.00 76 1011.5
20260506044503 64 185 4.3 10.4 0.00 0.00 0.00 76 1011.5
20260506044003 64 165 4.3 13.0 0.00 0.00 0.00 75 1011.5
20260506043503 64 179 4.3 10.4 0.00 0.00 0.00 75 1011.5
20260506043004 65 180 4.3 8.7 0.00 0.00 0.00 74 1011.5
20260506042503 65 157 2.6 6.1 0.00 0.00 0.00 74 1011.5
20260506042003 65 172 2.6 8.7 0.00 0.00 0.00 74 1011.4
20260506041504 65 184 3.5 8.7 0.00 0.00 0.00 74 1011.4
20260506041004 65 239 2.6 10.4 0.00 0.00 0.00 73 1011.5
20260506040503 65 184 2.6 7.8 0.00 0.00 0.00 73 1011.4
20260506040004 65 181 4.3 10.4 0.00 0.00 0.00 73 1011.3
20260506035504 65 180 5.2 12.2 0.00 0.00 0.00 73 1011.4
20260506035004 65 187 2.6 8.7 0.00 0.00 0.00 73 1011.5
20260506034503 65 178 5.2 10.4 0.00 0.00 0.00 72 1011.5
20260506034003 66 164 6.1 11.3 0.00 0.00 0.00 72 1011.5
20260506033503 66 191 4.3 11.3 0.00 0.00 0.00 72 1011.4
20260506033004 66 182 6.1 11.3 0.00 0.00 0.00 72 1011.4
20260506032503 66 201 5.2 12.2 0.00 0.00 0.00 71 1011.4
20260506032003 66 178 5.2 11.3 0.00 0.00 0.00 71 1011.5
20260506031503 66 208 5.2 12.2 0.00 0.00 0.00 71 1011.5
20260506031003 66 179 6.1 12.2 0.00 0.00 0.00 71 1011.5
20260506030503 66 174 4.3 13.0 0.00 0.00 0.00 70 1011.5
20260506030003 67 172 5.2 10.4 0.00 0.00 0.00 70 1011.5
20260506025504 67 168 6.1 12.2 0.00 0.00 0.00 70 1011.5
20260506025004 67 183 5.2 14.8 0.00 0.00 0.00 70 1011.5
20260506024503 67 189 4.3 12.2 0.00 0.00 0.00 70 1011.5
20260506024004 67 189 5.2 14.8 0.00 0.00 0.00 70 1011.7
20260506023503 67 185 5.2 12.2 0.00 0.00 0.00 70 1011.7
20260506023003 67 190 4.3 10.4 0.00 0.00 0.00 70 1011.6
20260506022504 67 213 3.5 10.4 0.00 0.00 0.00 70 1011.7
20260506022004 67 187 6.1 14.8 0.00 0.00 0.00 69 1011.7
20260506021503 67 195 4.3 15.6 0.00 0.00 0.00 69 1011.8
20260506021003 67 183 4.3 11.3 0.00 0.00 0.00 69 1011.7
20260506020504 68 182 6.1 12.2 0.00 0.00 0.00 69 1011.7
20260506020003 68 185 5.2 17.4 0.00 0.00 0.00 69 1011.6
20260506015503 68 180 7.8 17.4 0.00 0.00 0.00 69 1011.6
20260506015003 68 204 4.3 14.8 0.00 0.00 0.00 68 1011.6
20260506014503 68 185 6.1 17.4 0.00 0.00 0.00 68 1011.7
20260506014004 68 191 6.1 18.2 0.00 0.00 0.00 68 1011.4
20260506013503 68 170 3.5 15.6 0.00 0.00 0.00 67 1011.4
20260506013004 68 196 7.0 15.6 0.00 0.00 0.00 67 1011.2
20260506012503 68 177 5.2 13.0 0.00 0.00 0.00 66 1011.2
20260506012004 68 203 7.0 18.2 0.00 0.00 0.00 65 1011.5
20260506011503 69 187 7.0 13.0 0.00 0.00 0.00 64 1011.2